{"data":{"norad_id":40549,"intl_designator":"2015-019A","name":"BEIDOU-3S IGSO-1S (C31)","alt_names":[],"object_type":"PAYLOAD","status":"INACTIVE","operator":null,"country":"PRC","launch_date":"2015-03-30","launch_site_code":"XICLF","launch_vehicle":null,"mission":null,"orbit_class":"UNKNOWN","rcs_meters":11.7883,"size_class":null,"mass_kg":null,"dimensions":null,"purposes":["comms","nav"],"wikipedia_slug":null,"has_3d_model":false,"image_url":null,"decayed_at":null,"tle_current":{"epoch":"2026-09-16T01:27:51.734016Z","epoch_age_seconds":401741,"freshness":"STALE","line1":"1 40549U 15019A   26259.06101544 -.00000163  00000+0  00000+0 0  9992","line2":"2 40549  49.0213 294.3587 0038861 201.0354 337.5544  1.00288882 41982","mean_motion":1.00288882,"eccentricity":0.0038861,"inclination_deg":49.0213,"raan_deg":294.3587,"arg_perigee_deg":201.0354,"mean_anomaly_deg":337.5544,"bstar":0,"rev_number":4198,"period_min":1435.8520817891,"perigee_km":35617.964990573,"apogee_km":35945.640474161,"semimajor_km":42159.939732367,"source":"CELESTRAK","updated_at":"2026-09-20T09:00:46.673280Z"}}}